EHI
0 0 0 0 0 0 0 0 0 0 0 0 0 0 0 0 0 0 0 0 0 0 1 5 9 11 10 7 5 3 3 5 6 5 4 4 5 6 4 2 1 2 3 3 1 1 0 0 0
0 0 0 0 0 0 0 0 0 0 0 0 0 0 0 0 0 0 0 0 0 0 0 3 8 10 9 7 4 3 3 5 6 6 4 3 3 4 4 2 1 2 2 1 1 1 1 1 1
0 0 0 0 0 0 0 0 0 0 0 0 0 0 0 0 0 0 0 0 0 0 0 3 7 9 9 6 4 3 3 4 5 5 4 2 1 2 3 2 1 1 0 0 0 0 1 1 2
0 0 0 0 0 0 0 0 0 0 0 0 0 0 0 0 0 0 0 0 0 0 0 2 6 8 8 6 3 2 2 3 4 4 5 3 1 1 2 2 1 0 0 0 0 0 0 1 1
0 0 0 0 0 0 0 0 0 0 0 0 0 0 0 0 0 0 0 0 0 0 0 1 3 5 5 4 2 1 1 1 2 3 4 4 2 0 1 1 1 0 0 0 0 0 0 0 0
0 0 0 0 0 0 0 0 0 0 0 0 0 0 0 0 0 0 0 0 0 0 1 1 2 2 2 2 1 0 0 0 1 1 2 3 2 0 0 1 0 0 0 0 0 0 0 0 0
0 0 0 0 0 0 0 0 0 0 0 0 0 0 0 0 0 0 1 1 1 1 1 1 1 0 1 1 0 0 0 0 0 0 0 1 1 0 0 1 0 0 0 0 0 0 0 0 0
0 0 0 0 0 0 0 0 0 0 0 0 0 0 0 0 0 1 2 2 2 1 1 1 0 0 0 0 0 0 0 0 0 0 0 0 0 0 0 0 0 0 0 0 0 0 0 0 0
0 0 0 0 0 0 0 0 0 0 0 0 0 0 0 0 0 1 2 2 2 1 0 0 0 0 0 0 0 0 0 0 0 0 0 0 0 0 0 0 0 0 0 0 0 0 0 0 0
0 0 0 0 0 0 0 0 0 0 0 0 0 0 0 0 0 0 1 1 1 0 0 0 0 0 1 1 0 0 0 0 0 0 0 0 0 0 0 0 0 0 0 0 0 0 0 0 0
0 0 0 0 0 0 0 0 0 0 0 0 0 0 0 0 0 0 0 0 0 0 0 0 0 1 2 2 2 2 1 0 0 0 0 1 1 1 1 1 0 0 0 0 0 0 0 0 0
0 0 0 0 0 0 0 0 0 0 0 0 0 0 0 0 0 0 0 0 0 0 0 0 0 1 2 3 3 3 2 1 0 0 1 1 2 1 1 1 1 1 1 1 1 0 0 0 0
0 0 0 0 0 0 0 0 0 0 0 0 0 0 0 0 0 0 0 0 0 0 0 0 0 0 1 3 3 3 2 1 0 1 2 2 2 1 0 1 2 2 2 2 1 0 0 0 0
0 0 0 0 0 0 0 0 0 0 0 0 0 0 0 0 0 0 0 0 0 0 0 0 0 0 1 2 2 2 2 1 0 0 1 1 2 1 1 1 1 1 1 1 1 0 0 0 0
0 0 0 0 0 0 0 0 0 0 0 0 0 0 0 0 0 0 0 0 0 0 0 0 0 0 1 1 1 1 1 0 0 0 0 1 2 2 2 2 1 1 1 1 1 0 0 0 0
0 0 0 0 0 0 0 0 0 0 0 0 0 0 0 0 0 0 0 0 0 0 0 0 0 0 0 0 0 0 0 0 0 0 0 0 1 1 1 2 2 2 3 3 2 0 0 0 0
0 0 0 0 0 0 0 0 0 0 0 0 0 0 0 0 0 0 0 0 0 0 0 0 0 0 0 0 0 0 0 0 0 0 0 0 0 0 0 1 1 2 3 3 1 0 0 0 0
0 0 0 0 0 0 0 0 0 0 0 0 0 0 0 0 0 0 0 0 0 0 0 0 0 0 1 1 0 0 0 0 0 0 0 0 0 0 0 0 0 1 3 2 1 0 0 0 0
0 0 0 0 0 0 0 0 0 0 0 0 0 0 0 0 0 0 0 0 0 0 0 0 0 0 1 2 1 0 0 0 0 0 0 0 0 0 0 0 0 1 2 2 1 0 0 0 0
0 0 0 0 0 0 0 0 0 0 0 0 0 0 0 0 0 0 0 0 0 0 0 0 0 0 1 2 2 1 1 1 1 0 0 0 0 0 0 0 0 0 1 1 0 0 0 0 0
0 0 0 0 0 0 0 0 0 0 0 0 0 0 0 0 0 0 0 0 0 0 0 0 0 0 1 1 1 1 1 1 1 1 1 0 0 0 0 0 0 0 0 0 0 0 0 0 0
0 0 0 0 0 0 0 0 0 0 0 0 0 0 0 0 0 0 0 0 0 0 0 0 0 0 0 0 0 0 0 0 1 2 2 1 0 0 0 0 0 0 0 0 0 0 0 0 0
0 0 0 0 0 0 0 0 0 0 0 0 0 0 0 0 0 0 0 0 0 0 0 0 0 0 0 0 0 0 0 0 1 2 2 1 0 0 0 0 0 0 0 0 0 0 0 0 0
0 0 0 0 0 0 0 0 0 0 0 0 0 0 0 0 0 0 0 0 0 0 0 0 0 0 0 0 0 0 0 0 0 1 1 0 0 0 0 0 0 0 0 0 0 0 0 0 0
0 0 0 0 0 0 0 0 0 0 0 0 0 0 0 0 0 0 0 0 0 0 0 0 0 0 0 0 0 0 0 0 0 0 0 0 0 0 0 0 0 0 0 0 0 0 0 0 0
0 0 0 0 0 0 0 0 0 0 0 0 0 0 0 0 0 0 0 0 0 0 0 0 0 0 0 0 0 0 0 0 0 0 0 0 0 0 0 0 0 0 0 0 0 0 0 0 0
0 0 0 0 0 0 0 0 0 0 0 0 0 0 0 0 0 0 0 0 0 0 0 0 0 0 0 0 0 0 0 0 0 0 0 0 0 0 0 0 0 0 0 0 0 0 0 0 0
0 0 0 0 0 0 0 0 0 0 0 0 0 0 0 0 0 0 0 0 0 0 0 0 0 0 0 0 0 0 0 0 0 0 0 0 0 0 0 0 0 0 0 0 0 0 0 0 0
0 0 0 0 0 0 0 0 0 0 0 0 0 0 0 0 0 0 0 0 0 0 0 0 0 0 0 0 0 0 0 0 0 0 0 0 0 0 0 0 0 0 0 0 0 0 0 0 0
0 0 0 0 0 0 0 0 0 0 0 0 0 0 0 0 0 0 0 0 0 0 0 0 0 0 0 0 0 0 0 0 0 0 0 0 0 0 0 0 0 0 0 0 0 0 0 0 0
Wind_Speed
1 2 3 4 6 6 8 5 4 4 3 1 1 2 2 1 0 4 5 4 5 6 6 8 6 6 7 7 7 7 7 7 7 7 7 6 6 6 7 7 7 6 6 6 6 5 6 6 6
2 3 4 5 7 8 6 6 7 4 3 2 2 2 2 3 4 6 5 4 4 6 6 7 7 6 7 7 7 7 7 7 6 6 6 6 6 6 6 6 6 6 6 6 6 5 5 5 6
3 3 4 5 7 8 4 4 4 3 3 2 3 1 0 4 4 5 5 5 5 6 6 8 7 7 7 7 7 7 6 6 6 5 5 5 5 5 5 5 5 6 6 6 6 5 5 5 5
4 4 4 7 10 6 3 4 4 5 4 2 3 4 3 4 2 4 4 5 6 7 6 8 6 7 7 6 7 6 6 6 5 5 4 4 5 5 5 5 5 5 5 5 5 5 4 4 5
4 5 7 8 9 5 4 3 3 5 4 4 4 3 5 4 3 4 5 6 6 6 6 8 6 6 7 6 6 6 5 5 5 4 4 4 4 4 5 5 5 5 5 5 4 4 4 4 4
5 5 8 10 10 6 5 5 6 6 5 4 4 4 5 5 4 5 5 5 6 6 6 7 7 6 6 6 6 6 6 5 4 4 4 4 4 4 4 4 5 5 5 4 4 4 4 4 4
6 5 7 8 7 7 5 5 7 7 7 5 3 4 6 7 4 5 5 5 5 5 5 5 5 5 5 5 5 5 5 5 4 4 3 3 3 3 4 4 4 4 4 4 4 3 3 4 4
4 5 7 7 8 7 4 4 3 5 4 2 3 5 5 6 5 5 5 5 5 5 4 4 4 4 4 4 5 5 4 4 4 3 3 2 2 3 3 3 3 4 3 3 3 3 3 3 3
4 7 9 8 7 5 5 5 3 1 3 3 2 1 3 7 6 6 6 5 5 4 4 3 4 3 3 3 4 4 4 3 3 3 2 2 2 3 3 2 3 3 3 3 2 3 3 3 3
7 9 9 4 4 3 5 4 4 5 6 6 5 3 4 7 7 7 7 6 5 5 4 3 3 3 3 2 2 2 2 2 2 2 2 2 2 1 1 3 3 2 3 3 3 3 4 3 3
8 9 6 5 3 3 4 4 4 6 7 7 7 8 7 7 7 7 7 6 5 4 4 3 3 2 2 2 2 1 1 1 2 2 2 2 2 1 1 1 2 3 3 3 3 4 3 3 2
7 7 6 4 3 4 5 5 6 9 6 2 3 6 7 9 9 8 7 6 5 4 4 3 3 2 2 2 2 2 1 1 1 1 2 2 1 2 2 1 2 2 2 2 2 2 3 4 4
11 6 6 6 6 6 7 9 9 11 8 6 5 7 9 9 8 7 6 6 6 5 5 4 4 3 3 2 2 2 1 1 1 1 1 2 2 2 2 2 2 2 2 2 3 3 3 4 4
6 8 7 7 8 7 9 11 11 12 8 8 9 10 11 10 10 8 7 7 7 6 5 5 5 4 4 3 3 2 2 2 1 1 2 2 2 2 2 2 2 2 2 2 3 3 3 4 3
4 6 8 9 9 7 7 13 15 12 10 11 11 11 11 10 10 10 9 8 7 6 6 5 4 5 4 4 3 2 2 2 2 2 2 3 3 3 3 3 2 2 2 3 3 3 3 3 4
5 7 9 7 7 7 9 14 7 7 10 11 11 11 10 11 11 10 9 8 7 6 6 5 4 5 5 4 3 2 2 2 2 2 2 3 3 4 3 3 3 3 2 3 2 3 3 3 4
8 9 10 7 7 7 11 12 4 4 8 10 10 10 10 10 11 10 9 9 8 7 7 6 5 5 5 4 3 3 2 2 2 2 2 3 4 4 4 3 3 3 3 2 2 3 3 3 4
9 10 9 9 5 8 12 14 9 7 9 11 11 11 11 11 11 9 9 8 8 7 6 6 6 5 5 4 3 2 2 2 2 2 2 3 3 4 4 3 4 3 3 3 3 3 3 4 4
6 8 9 7 3 8 13 16 15 12 12 13 13 13 12 12 10 9 8 8 8 7 7 7 6 6 5 4 3 3 2 2 2 2 3 3 4 4 4 3 4 3 3 3 4 3 4 4 3
10 10 10 7 4 8 12 18 16 15 15 13 14 13 13 12 11 9 9 9 9 8 7 7 6 6 5 4 3 2 2 2 2 2 3 3 4 4 4 4 4 4 3 4 4 4 3 3 3
13 13 12 8 5 7 10 14 13 10 10 11 12 12 12 12 12 11 10 10 9 8 7 6 6 5 5 4 3 2 2 2 2 2 2 3 3 4 4 5 4 4 4 4 4 4 5 4 4
12 10 10 9 8 6 4 9 7 7 8 9 10 10 10 10 11 10 10 10 9 8 6 6 6 5 5 5 5 5 4 3 3 2 2 3 3 3 4 4 5 4 4 5 5 5 5 5 4
6 4 6 8 8 9 8 9 8 6 8 8 8 8 8 8 9 9 9 9 8 7 5 5 6 5 5 5 5 5 4 3 2 2 3 3 3 3 4 5 5 4 4 5 5 5 6 5 5
6 4 3 4 6 10 11 12 9 6 7 5 5 6 6 6 7 7 7 7 6 5 5 5 5 5 5 5 5 5 5 4 4 4 3 2 2 2 4 4 4 5 4 5 5 6 6 6 6
8 7 5 6 8 9 6 10 10 3 3 4 3 3 4 4 5 6 6 6 6 6 6 5 5 5 5 5 5 5 4 4 5 4 3 3 2 3 3 4 4 4 4 5 5 6 6 7 7
13 11 8 7 7 5 6 11 5 1 2 3 3 2 3 4 4 5 5 5 5 5 5 5 5 5 5 4 4 4 4 3 3 3 3 3 3 3 4 4 4 5 5 5 5 5 6 6 7
9 10 6 3 3 5 7 6 5 3 4 4 3 2 2 3 4 4 4 4 5 5 5 5 5 5 4 4 4 3 3 3 3 3 3 3 3 3 4 4 5 5 5 6 6 5 6 6 7
5 5 5 6 6 8 7 8 5 5 4 3 3 2 2 2 3 3 3 3 3 3 4 5 5 4 4 3 3 2 2 2 2 2 3 3 3 4 4 5 5 5 5 5 6 6 6 7 7
7 7 6 5 5 6 6 3 1 2 2 2 2 1 1 1 2 2 2 2 3 3 3 4 4 3 3 3 2 2 2 2 2 2 3 3 3 4 4 5 5 5 6 6 6 7 7 8 8
6 7 7 5 6 6 6 1 3 1 1 1 1 1 1 1 0 0 0 1 2 2 3 3 3 3 3 2 2 2 2 2 2 2 3 3 4 4 4 5 5 5 6 6 7 7 7 8 9
Wind_Direction
270 232 222 220 217 223 228 205 197 167 171 149 168 207 195 158 14 81 86 103 107 128 132 134 119 123 124 123 121 118 116 114 116 122 124 125 126 125 127 129 131 129 129 131 131 129 130 129 127
239 209 212 221 231 220 210 200 198 181 118 124 160 191 173 122 62 90 114 105 120 126 127 123 111 118 119 120 121 123 120 119 117 121 125 128 128 128 127 130 132 127 123 121 121 121 124 130 131
193 231 221 217 228 232 197 168 180 154 156 188 162 167 101 105 104 105 94 125 134 129 128 110 102 112 117 118 118 116 118 122 122 121 125 132 132 130 128 124 124 127 125 123 122 122 124 124 130
199 194 217 233 225 230 231 136 136 165 166 184 183 147 118 68 67 84 109 140 138 131 128 113 105 107 108 114 118 117 116 117 119 118 121 133 137 134 131 126 121 119 124 127 127 128 131 133 130
217 211 211 224 230 219 222 215 202 199 173 170 193 159 131 100 84 104 128 139 135 128 126 120 103 108 108 109 115 117 116 118 119 115 112 123 134 134 128 126 125 123 119 121 128 131 136 140 141
195 216 223 225 218 213 215 213 214 217 194 177 193 172 129 118 118 115 128 136 130 127 128 124 108 100 103 106 108 112 113 114 115 117 116 114 118 131 130 128 129 129 128 127 130 138 143 146 146
214 217 235 233 222 215 203 198 216 215 205 188 192 178 143 140 114 125 129 126 122 125 131 131 140 130 110 101 105 106 112 111 107 108 112 109 106 119 132 129 132 134 133 131 132 136 146 151 152
236 228 228 224 222 216 174 184 213 229 210 146 213 205 161 143 133 136 127 123 121 125 132 136 139 144 148 136 110 106 106 109 107 103 99 99 118 128 131 147 137 141 147 146 149 147 146 156 155
221 231 228 219 217 200 173 190 171 221 192 183 209 304 78 127 147 150 145 141 137 138 143 143 141 142 145 144 129 134 122 118 139 139 125 167 186 179 168 159 129 153 161 163 169 167 158 161 164
211 230 231 227 227 190 176 201 182 195 201 197 188 165 141 153 169 175 177 171 166 163 159 158 161 156 152 145 150 161 160 157 186 178 173 197 199 189 201 139 145 165 179 186 190 183 175 201 195
212 234 233 222 225 219 208 211 209 224 223 217 205 179 168 178 190 194 192 184 179 175 171 173 171 172 170 163 167 164 169 174 195 203 189 202 204 187 206 178 176 196 200 204 193 199 209 221 216
222 233 238 228 210 222 229 230 230 234 243 247 214 180 184 195 199 202 200 191 182 184 184 185 182 180 184 184 178 188 182 181 191 212 222 213 212 222 206 208 208 213 210 218 217 225 224 235 231
226 230 230 237 233 243 246 243 252 245 245 244 224 207 209 210 210 208 207 201 191 188 188 188 192 188 186 188 198 206 208 203 196 214 227 224 217 228 225 222 218 226 233 221 231 235 238 245 246
228 231 238 241 239 239 243 251 246 244 233 226 221 220 220 219 218 214 206 205 200 196 194 192 196 195 192 196 199 206 210 207 224 220 233 238 234 229 230 233 229 231 238 241 241 245 245 246 250
223 236 243 236 234 233 243 249 235 239 229 227 223 221 223 223 221 219 215 212 208 203 200 197 200 200 198 202 206 212 215 212 218 229 237 235 237 236 230 234 230 233 239 241 244 246 252 253 252
211 228 235 214 214 210 224 251 230 217 217 224 225 223 222 223 224 223 217 215 212 205 202 197 197 202 202 205 208 210 219 220 220 228 238 238 239 239 237 232 232 235 236 238 239 244 248 251 254
212 229 232 217 206 209 226 255 226 209 221 228 226 224 223 221 223 222 216 212 210 205 199 195 197 204 202 203 207 213 217 226 231 231 238 236 236 237 236 236 234 229 231 236 238 245 252 255 256
214 225 232 229 194 221 236 250 246 234 237 241 234 229 226 224 222 216 211 206 204 202 199 197 196 204 199 198 200 201 211 224 233 235 237 238 238 238 240 238 236 229 228 231 233 241 250 257 257
245 237 241 243 244 252 252 259 257 248 242 243 240 234 231 229 224 214 208 200 195 196 198 198 199 197 194 192 198 203 209 217 227 236 240 236 238 236 238 240 234 229 232 236 239 244 248 253 259
231 241 249 257 254 262 271 270 263 250 241 241 241 238 234 229 220 210 205 198 198 197 197 201 205 200 197 198 203 214 215 227 236 240 243 238 238 235 237 236 235 230 234 237 239 241 248 252 242
229 238 244 250 266 256 281 272 246 230 232 236 238 238 234 227 218 209 204 200 198 198 198 203 204 203 198 191 191 185 190 215 218 228 237 241 241 238 236 239 236 233 233 235 236 236 241 248 248
233 232 239 243 253 255 262 280 251 222 227 226 227 224 224 218 214 208 202 199 198 198 195 203 205 204 196 193 203 205 213 223 236 238 234 242 244 243 238 243 240 236 235 234 235 236 240 243 245
224 202 220 235 247 263 234 255 262 222 233 225 221 218 217 212 207 202 199 199 199 194 192 201 204 202 193 201 207 213 219 226 228 232 234 240 241 241 239 242 241 239 239 239 238 238 239 240 243
171 159 189 217 237 249 230 231 259 222 230 230 221 217 209 201 199 197 195 195 197 189 191 200 199 197 194 202 209 215 217 221 225 234 239 240 238 242 243 244 242 240 239 238 237 239 240 243 245
192 186 196 205 215 236 197 227 251 250 246 251 238 220 204 193 190 189 191 191 193 189 193 198 196 197 196 200 208 213 216 220 224 233 238 246 246 247 249 248 246 246 247 246 244 243 243 244 245
199 208 213 221 227 211 196 233 246 226 244 249 245 236 209 198 191 192 193 192 194 193 198 200 201 200 198 200 205 205 209 219 227 238 241 247 250 255 255 255 254 256 255 251 248 248 248 246 248
188 213 232 252 280 255 221 236 257 215 213 216 208 198 193 189 190 192 193 198 202 200 205 204 202 201 199 200 201 201 207 219 230 243 248 249 249 255 255 254 254 255 255 254 251 249 252 252 252
226 184 185 210 222 238 235 232 222 185 194 187 179 170 152 175 186 192 195 201 203 202 202 199 199 201 200 199 199 204 215 232 239 246 253 258 257 257 256 255 254 256 257 256 253 253 253 252 251
177 188 209 213 245 246 243 221 101 176 163 160 154 149 150 174 181 192 212 212 204 200 192 186 185 186 193 193 194 203 218 236 244 251 259 266 266 262 261 261 259 259 260 260 260 260 258 256 256
215 203 194 210 218 237 262 239 84 111 103 145 137 112 68 73 87 237 213 190 190 184 177 170 173 178 186 188 190 202 222 239 253 264 275 280 277 273 270 266 265 265 265 264 262 264 264 262 261